Weather in Rio Claro

Brazil     22°26′55″S   47°34′14″W
temp.,
°C
wind,
m/s
gust,
m/s
humid.,
%
clouds,
%
prec.,
mm/h
press.,
hPa
HPBL,
m
21 june, mon
mon2100:00+12ssw119575 0.0 102119
03:00+12s11977 0.0 102111
06:00+11sw11972 0.0 102110
09:00+16ese356950 0.0 1022404
12:00+23ese0140100 0.0 1019949
15:00+24wsw1138100 0.0 10171155
18:00+19ssw1153100 0.0 101812
21:00+18s1154100 0.0 102027
22 june, tue
tue2200:00+16ssw116459 0.0 102011
03:00+14ssw117565 0.0 101911
06:00+13ssw118966 0.0 102010
09:00+19s236453 0.0 1021340
12:00+24s224770 0.1 1020917
15:00+24s335299 0.1 1018969
18:00+20sse236649 0.0 101973
21:00+18s27756 0.0 1021245
23 june, wed
wed2300:00+16sse38870 0.0 1022327
03:00+14sse39900 0.0 1021317
06:00+12s24950 0.0 102286
09:00+18se36693 0.0 1022491
12:00+24se33455 0.0 10201086
15:00+26s21395 0.0 10171608
18:00+20sse225613 0.0 101828
21:00+16s227513 0.0 102029
24 june, thu
thu2400:00+13sw11915 0.0 102011
03:00+13ene119412 0.0 101910
06:00+13ne22915 0.0 101817
09:00+19ne48605 0.0 1018400
12:00+27n46375 0.0 10161032
15:00+29nnw46347 0.0 10131679
18:00+22ne225049 0.0 101411
21:00+20nne3457100 0.0 101569
25 june, fri
fri2500:00+19nne31162100 0.0 1014220
03:00+19nne41262100 0.0 1013284
06:00+18nnw1365100 0.0 101560
09:00+22n3651100 0.0 1017243
12:00+29nnw453411 0.0 10161242
15:00+30nnw343065 0.0 10132120
18:00+23nne11471 0.0 101411
21:00+21ne22513 0.0 101611